Regional Weather Roundup
Issued by NWS

Home | Current Version | Previous Version | Graphics & Text | Print | Product List | Glossary On
Versions: 1 2 3 4 5 6 7 8 9 10 11 12 13 14 15 16 17 18 19 20 21 22 23 24 25 26 27 28 29 30 31 32 33 34 35 36 37 38 39 40 41 42 43 44 45 46 47 48 49 50
556
ASUS43 KLSX 201807
RWRMO

WEATHER SUMMARY FOR MISSOURI
NATIONAL WEATHER SERVICE SPRINGFIELD MO
1200 PM CST MON FEB 20 2017

NOTE: "FAIR" INDICATES FEW OR NO CLOUDS BELOW 12,000 FEET WITH NO
       SIGNIFICANT WEATHER AND/OR OBSTRUCTIONS TO VISIBILITY.
       CURRENT SKY AND/OR WEATHER CONDITIONS ARE NOT AVAILABLE FOR
       CHILLICOTHE AND FARMINGTON.

MOZ001>031-035>038-043-044-053-054-201900-
...NORTHERN AND WESTERN MISSOURI...

CITY           SKY/WX    TMP DP  RH WIND       PRES   REMARKS
KANSAS CTY INT CLOUDY    61  58  90 S15       29.85R
6HR MIN TEMP:  59; 6HR MAX TEMP:  62; 6HR PCP:  0.03;

KANSAS C DTWN  CLOUDY    63  59  87 S13       29.85R
6HR MIN TEMP:  61; 6HR MAX TEMP:  64; 6HR PCP: TRACE;

LEE`S SUMMIT   CLOUDY    61  58  90 SW13G22   29.87R
6HR MIN TEMP:  59; 6HR MAX TEMP:  62; 6HR PCP:  0.09;

ST JOSEPH      CLOUDY    62  59  90 S12       29.82R
6HR MIN TEMP:  60; 6HR MAX TEMP:  63; 6HR PCP:  0.04;

CHILLICOTHE      N/A     62  58  86 S8        29.86R
6HR MIN TEMP:  60; 6HR MAX TEMP:  62; 6HR PCP:  0.07;

KIRKSVILLE     CLOUDY    67  52  58 S15       29.86F
6HR MIN TEMP:  56; 6HR MAX TEMP:  68;


$$
MOZ066>068-077>081-088>096-101>105-201900-
...SOUTHWEST MISSOURI...

CITY           SKY/WX    TMP DP  RH WIND       PRES   REMARKS
SPRINGFIELD    CLOUDY    67  59  75 SE24      29.89F
6HR MIN TEMP:  59; 6HR MAX TEMP:  67; 6HR PCP:  0.05;

JOPLIN         CLOUDY    66  60  81 S12       29.89R
6HR MIN TEMP:  60; 6HR MAX TEMP:  66; 6HR PCP:  0.13;

BRANSON        PTSUNNY   66  59  77 SE16G28   29.95F

$$
MOZ032>034-039>042-045>050-055>058-069>072-201900-
...CENTRAL MISSOURI...

CITY           SKY/WX    TMP DP  RH WIND       PRES   REMARKS
COLUMBIA       CLOUDY    71  50  47 S23G32    29.91F
6HR MIN TEMP:  59; 6HR MAX TEMP:  72;

JEFFERSON CITY CLOUDY    71  49  45 S20       29.91F
6HR MIN TEMP:  58; 6HR MAX TEMP:  71;

ROLLA          CLOUDY    70  50  49 S20G29    29.94F
6HR MIN TEMP:  58; 6HR MAX TEMP:  70; 6HR PCP: TRACE;

SEDALIA        LGT RAIN  69  58  67 S21       29.87F
6HR MIN TEMP:  63; 6HR MAX TEMP:  70; 6HR PCP: TRACE;

WHITEMAN AFB   CLOUDY    65  65 100 S15       29.83F
WARRENSBURG    LGT RAIN  64  57  77 SE17G25   29.83F
OSAGE BEACH    CLOUDY    70  57  63 S20       29.93F

$$
MOZ051-052-059>065-201900-
...EAST CENTRAL MISSOURI...

CITY           SKY/WX    TMP DP  RH WIND       PRES   REMARKS
ST LOUIS INTL  PTSUNNY   74  52  46 SE17      30.00F
6HR MIN TEMP:  53; 6HR MAX TEMP:  74;

SPIRIT OF STL  PTSUNNY   76  54  46 S17G25    29.97F
6HR MIN TEMP:  47; 6HR MAX TEMP:  77;

ST CHARLES     MOSUNNY   75  53  46 SE20G29   29.98F
6HR MIN TEMP:  49; 6HR MAX TEMP:  75;


$$
MOZ072>076-082>087-097>100-106>115-201900-
...SOUTH CENTRAL AND SOUTHEAST MISSOURI...

CITY           SKY/WX    TMP DP  RH WIND       PRES   REMARKS
CAPE GIRARDEAU SUNNY     70  55  59 S10       30.07F
6HR MIN TEMP:  50; 6HR MAX TEMP:  70;

FARMINGTON     PTSUNNY   71  54  54 S21G28    30.03F
6HR MIN TEMP:  54; 6HR MAX TEMP:  72;

POPLAR BLUFF   PTSUNNY   70  57  63 S10G16    30.05F
6HR MIN TEMP:  50; 6HR MAX TEMP:  70;

WEST PLAINS    PTSUNNY   71  54  54 S15G23    30.01F
6HR MIN TEMP:  55; 6HR MAX TEMP:  71;


$$



USA.gov is the U.S. government's official web portal to all federal, state and local government web resources and services.